TimeEST,TemperatureF,Dew PointF,Humidity,Sea Level PressureIn,VisibilityMPH,Wind Direction,Wind SpeedMPH,Gust SpeedMPH,PrecipitationIn,Events,Conditions,WindDirDegrees,DateUTC
12:00 AM,33.8,30.2,87,30.25,2.0,NNW,9.2,-,0.00,Snow,Light Snow,340,2013-03-07 05:00:00
12:08 AM,33.8,30.2,87,30.25,9.0,NNW,6.9,-,0.00,,Overcast,340,2013-03-07 05:08:00
12:18 AM,33.8,30.2,87,30.25,10.0,NNW,9.2,-,0.00,,Overcast,340,2013-03-07 05:18:00
12:54 AM,33.1,28.9,85,30.27,10.0,NW,8.1,-,0.00,,Overcast,320,2013-03-07 05:54:00
1:54 AM,33.1,30.0,89,30.28,9.0,NW,8.1,-,0.00,,Overcast,320,2013-03-07 06:54:00
2:43 AM,33.8,28.4,81,30.26,10.0,NNW,8.1,-,N/A,,Overcast,330,2013-03-07 07:43:00
2:51 AM,33.8,28.4,81,30.26,10.0,NNW,9.2,-,N/A,,Overcast,330,2013-03-07 07:51:00
2:54 AM,33.1,28.9,85,30.29,10.0,NNW,9.2,-,N/A,,Overcast,330,2013-03-07 07:54:00
3:21 AM,33.8,28.4,81,30.26,10.0,NW,8.1,-,N/A,,Overcast,320,2013-03-07 08:21:00
3:47 AM,33.8,28.4,81,30.27,10.0,NNW,9.2,-,N/A,,Overcast,330,2013-03-07 08:47:00
3:54 AM,33.1,28.9,85,30.30,10.0,NNW,8.1,-,N/A,,Overcast,330,2013-03-07 08:54:00
4:54 AM,33.1,28.9,85,30.32,10.0,NNW,5.8,-,N/A,,Overcast,340,2013-03-07 09:54:00
5:25 AM,33.8,28.4,81,30.30,10.0,NNW,6.9,-,N/A,,Overcast,340,2013-03-07 10:25:00
5:54 AM,32.0,28.9,88,30.33,10.0,NNW,6.9,-,N/A,,Overcast,330,2013-03-07 10:54:00
6:41 AM,32.0,28.4,87,30.30,10.0,NW,5.8,-,0.00,,Overcast,310,2013-03-07 11:41:00
6:54 AM,32.0,28.9,88,30.34,10.0,NW,6.9,-,0.00,,Overcast,310,2013-03-07 11:54:00
7:50 AM,32.0,28.4,87,30.33,10.0,NW,3.5,-,N/A,,Overcast,310,2013-03-07 12:50:00
7:54 AM,32.0,28.9,88,30.36,10.0,NW,5.8,-,N/A,,Overcast,310,2013-03-07 12:54:00
8:36 AM,32.0,28.4,87,30.34,10.0,NNW,4.6,-,N/A,,Overcast,330,2013-03-07 13:36:00
8:54 AM,33.1,28.9,85,30.38,10.0,NW,8.1,-,N/A,,Overcast,310,2013-03-07 13:54:00
9:07 AM,33.8,28.4,81,30.35,10.0,WNW,6.9,-,N/A,,Overcast,300,2013-03-07 14:07:00
9:54 AM,33.1,30.0,89,30.39,6.0,WNW,5.8,-,0.00,Snow,Light Snow,300,2013-03-07 14:54:00
10:29 AM,33.8,28.4,81,30.37,10.0,North,5.8,-,0.00,,Overcast,10,2013-03-07 15:29:00
10:54 AM,34.0,27.0,75,30.40,8.0,North,9.2,-,0.00,,Overcast,350,2013-03-07 15:54:00
11:47 AM,35.6,26.6,70,30.37,10.0,North,9.2,-,0.01,,Overcast,350,2013-03-07 16:47:00
11:54 AM,35.1,26.1,70,30.40,10.0,North,8.1,-,0.01,,Overcast,350,2013-03-07 16:54:00
12:49 PM,35.6,24.8,65,30.36,10.0,NW,9.2,-,N/A,,Overcast,320,2013-03-07 17:49:00
12:54 PM,36.0,25.0,64,30.39,10.0,NW,6.9,-,N/A,,Overcast,320,2013-03-07 17:54:00
1:19 PM,35.6,24.8,65,30.36,10.0,NNW,5.8,-,N/A,,Overcast,340,2013-03-07 18:19:00
1:54 PM,36.0,23.0,59,30.39,10.0,NW,9.2,-,N/A,,Overcast,310,2013-03-07 18:54:00
2:54 PM,36.0,23.0,59,30.39,10.0,NW,6.9,-,N/A,,Overcast,320,2013-03-07 19:54:00
3:54 PM,35.1,21.9,59,30.39,10.0,North,8.1,-,N/A,,Overcast,350,2013-03-07 20:54:00
4:54 PM,35.1,23.0,61,30.40,10.0,North,10.4,-,N/A,,Overcast,350,2013-03-07 21:54:00
5:54 PM,34.0,24.1,67,30.41,10.0,North,8.1,-,N/A,,Overcast,360,2013-03-07 22:54:00
6:54 PM,32.0,21.9,66,30.43,10.0,NW,4.6,-,N/A,,Clear,320,2013-03-07 23:54:00
7:54 PM,28.9,21.0,72,30.42,10.0,Calm,Calm,-,N/A,,Clear,0,2013-03-08 00:54:00
8:54 PM,25.0,19.0,78,30.43,10.0,North,3.5,-,N/A,,Clear,350,2013-03-08 01:54:00
9:54 PM,24.1,18.0,77,30.43,10.0,NNE,3.5,-,N/A,,Clear,20,2013-03-08 02:54:00
10:54 PM,21.9,18.0,85,30.44,10.0,NNE,3.5,-,N/A,,Clear,20,2013-03-08 03:54:00
11:54 PM,21.0,17.1,85,30.45,10.0,Calm,Calm,-,N/A,,Clear,0,2013-03-08 04:54:00